This is the latest recevied weather packets stored in our database for station/object CE3MXM-12. If no packets are shown the sender has not sent any weather packets the latest 10 day(s).
| Time | Temp. | Humidity | Pressure | Rain* | Wind** | Luminosity | Snow |
|---|---|---|---|---|---|---|---|
| 1788141239 | 49° F | 72% | 764.3 mmHg | - | - | - | - |
| 1788140939 | 50° F | 71% | 764.2 mmHg | - | - | - | - |
| 1788140639 | 50° F | 70% | 764.3 mmHg | - | - | - | - |
| 1788140338 | 50° F | 70% | 764 mmHg | - | - | - | - |
| 1788140039 | 50° F | 70% | 764.2 mmHg | - | - | - | - |
| 1788139739 | 50° F | 69% | 764.1 mmHg | - | - | - | - |
| 1788139438 | 50° F | 70% | 764.2 mmHg | - | - | - | - |
| 1788139138 | 50° F | 71% | 763.9 mmHg | - | - | - | - |
| 1788138838 | 50° F | 71% | 763.9 mmHg | - | - | - | - |
| 1788138538 | 50° F | 70% | 764 mmHg | - | - | - | - |
| 1788138238 | 51° F | 69% | 763.9 mmHg | - | - | - | - |
| 1788137938 | 51° F | 69% | 764 mmHg | - | - | - | - |
| 1788137638 | 50° F | 69% | 764 mmHg | - | - | - | - |
| 1788137338 | 50° F | 70% | 763.9 mmHg | - | - | - | - |
| 1788137038 | 50° F | 71% | 763.8 mmHg | - | - | - | - |
| 1788136738 | 50° F | 70% | 763.9 mmHg | - | - | - | - |
| 1788136437 | 50° F | 72% | 763.9 mmHg | - | - | - | - |
| 1788136137 | 50° F | 72% | 763.9 mmHg | - | - | - | - |
| 1788135837 | 50° F | 71% | 763.9 mmHg | - | - | - | - |
| 1788135537 | 51° F | 71% | 763.7 mmHg | - | - | - | - |
| 1788135237 | 50° F | 74% | 763.5 mmHg | - | - | - | - |
| 1788134937 | 51° F | 73% | 763.7 mmHg | - | - | - | - |
| 1788134637 | 51° F | 71% | 763.7 mmHg | - | - | - | - |
| 1788134337 | 51° F | 70% | 763.7 mmHg | - | - | - | - |
| 1788134037 | 51° F | 70% | 763.6 mmHg | - | - | - | - |
* Rain since midnight (hover to see other rain measurements)
** Current wind speed in m/s (hover to see current wind gust speed)